Location: Franzen
(48.6167°N, 15.3833°E)
Time: 17:17:48
(UTC+00:00)

A-11 Canister half - Pass Details

Date: 05 August 2021
Orbit: 1515 x 1685 km, 47.2° (Epoch: 19 September)

Event Time Altitude Azimuth Distance (km) Brightness Sun altitude
Rises 17:23:04 0° 264° (W) 4,807 13.1 9.5°
Reaches altitude 10° 17:26:07 10° 264° (W) 3,844 12.7 9.0°
Maximum altitude 17:36:01 84° 179° (S) 1,670 9.4 7.4°
Drops below altitude 10° 17:46:12 10° 93° (E) 3,946 10.6 5.8°
Sets 17:49:23 0° 93° (E) 4,939 11.0 5.3°
